<?xml version="1.0" encoding="UTF-8" standalone="no" ?>
<gpx xmlns="http://www.topografix.com/GPX/1/1" xmlns:xsi="http://www.w3.org/2001/XMLSchema-instance" xsi:schemaLocation="http://www.topografix.com/GPX/1/1 http://www.topografix.com/GPX/1/1/gpx.xsd" version="1.1" creator="VisuGPX - https://www.visugpx.com">
  <metadata>
    <name>Les Biefs </name>
    <desc><![CDATA[Un beau parcours entre le 03 et le 42 assez difficile]]></desc>
  </metadata>
  <trk>
    <name><![CDATA[Les Biefs RECO]]></name>
    <trkseg>
      <trkpt lat="46.11677" lon="3.79586">
        <ele>767</ele>
        <time>2011-12-25T19:10:56Z</time>
      </trkpt>
      <trkpt lat="46.11639" lon="3.79669">
        <ele>768</ele>
        <time>2011-12-25T19:10:56Z</time>
      </trkpt>
      <trkpt lat="46.11623" lon="3.79756">
        <ele>765</ele>
        <time>2011-12-25T19:10:56Z</time>
      </trkpt>
      <trkpt lat="46.11628" lon="3.79813">
        <ele>767</ele>
        <time>2011-12-25T19:10:56Z</time>
      </trkpt>
      <trkpt lat="46.11653" lon="3.79956">
        <ele>776</ele>
        <time>2011-12-25T19:10:56Z</time>
      </trkpt>
      <trkpt lat="46.11664" lon="3.80108">
        <ele>790</ele>
        <time>2011-12-25T19:10:56Z</time>
      </trkpt>
      <trkpt lat="46.11664" lon="3.803">
        <ele>806</ele>
        <time>2011-12-25T19:10:56Z</time>
      </trkpt>
      <trkpt lat="46.11662" lon="3.80401">
        <ele>815</ele>
        <time>2011-12-25T19:10:56Z</time>
      </trkpt>
      <trkpt lat="46.11661" lon="3.8047">
        <ele>817</ele>
        <time>2011-12-25T19:10:56Z</time>
      </trkpt>
      <trkpt lat="46.11667" lon="3.80493">
        <ele>818</ele>
        <time>2011-12-25T19:10:56Z</time>
      </trkpt>
      <trkpt lat="46.11741" lon="3.80568">
        <ele>813</ele>
        <time>2011-12-25T19:10:56Z</time>
      </trkpt>
      <trkpt lat="46.11772" lon="3.80641">
        <ele>797</ele>
        <time>2011-12-25T19:10:56Z</time>
      </trkpt>
      <trkpt lat="46.11791" lon="3.80719">
        <ele>786</ele>
        <time>2011-12-25T19:10:56Z</time>
      </trkpt>
      <trkpt lat="46.1179" lon="3.8077">
        <ele>785</ele>
        <time>2011-12-25T19:10:56Z</time>
      </trkpt>
      <trkpt lat="46.11798" lon="3.80812">
        <ele>784</ele>
        <time>2011-12-25T19:10:56Z</time>
      </trkpt>
      <trkpt lat="46.1185" lon="3.80904">
        <ele>776</ele>
        <time>2011-12-25T19:10:56Z</time>
      </trkpt>
      <trkpt lat="46.11908" lon="3.80983">
        <ele>774</ele>
        <time>2011-12-25T19:10:56Z</time>
      </trkpt>
      <trkpt lat="46.1196" lon="3.8107">
        <ele>766</ele>
        <time>2011-12-25T19:10:56Z</time>
      </trkpt>
      <trkpt lat="46.12015" lon="3.81162">
        <ele>753</ele>
        <time>2011-12-25T19:10:56Z</time>
      </trkpt>
      <trkpt lat="46.12047" lon="3.81257">
        <ele>753</ele>
        <time>2011-12-25T19:10:56Z</time>
      </trkpt>
      <trkpt lat="46.12098" lon="3.81338">
        <ele>752</ele>
        <time>2011-12-25T19:10:56Z</time>
      </trkpt>
      <trkpt lat="46.12149" lon="3.81405">
        <ele>754</ele>
        <time>2011-12-25T19:10:56Z</time>
      </trkpt>
      <trkpt lat="46.12181" lon="3.81443">
        <ele>752</ele>
        <time>2011-12-25T19:10:56Z</time>
      </trkpt>
      <trkpt lat="46.12213" lon="3.81512">
        <ele>751</ele>
        <time>2011-12-25T19:10:56Z</time>
      </trkpt>
      <trkpt lat="46.12245" lon="3.81633">
        <ele>748</ele>
        <time>2011-12-25T19:10:56Z</time>
      </trkpt>
      <trkpt lat="46.12278" lon="3.81789">
        <ele>736</ele>
        <time>2011-12-25T19:10:56Z</time>
      </trkpt>
      <trkpt lat="46.12307" lon="3.8189">
        <ele>723</ele>
        <time>2011-12-25T19:10:56Z</time>
      </trkpt>
      <trkpt lat="46.12331" lon="3.81984">
        <ele>711</ele>
        <time>2011-12-25T19:10:56Z</time>
      </trkpt>
      <trkpt lat="46.12341" lon="3.82045">
        <ele>701</ele>
        <time>2011-12-25T19:10:56Z</time>
      </trkpt>
      <trkpt lat="46.12358" lon="3.82106">
        <ele>691</ele>
        <time>2011-12-25T19:10:56Z</time>
      </trkpt>
      <trkpt lat="46.12369" lon="3.82152">
        <ele>683</ele>
        <time>2011-12-25T19:10:56Z</time>
      </trkpt>
      <trkpt lat="46.12372" lon="3.8227">
        <ele>669</ele>
        <time>2011-12-25T19:10:56Z</time>
      </trkpt>
      <trkpt lat="46.12376" lon="3.82403">
        <ele>654</ele>
        <time>2011-12-25T19:10:56Z</time>
      </trkpt>
      <trkpt lat="46.12382" lon="3.82529">
        <ele>647</ele>
        <time>2011-12-25T19:10:56Z</time>
      </trkpt>
      <trkpt lat="46.12392" lon="3.82594">
        <ele>644</ele>
        <time>2011-12-25T19:10:56Z</time>
      </trkpt>
      <trkpt lat="46.12412" lon="3.82694">
        <ele>629</ele>
        <time>2011-12-25T19:10:56Z</time>
      </trkpt>
      <trkpt lat="46.12428" lon="3.82759">
        <ele>618</ele>
        <time>2011-12-25T19:10:56Z</time>
      </trkpt>
      <trkpt lat="46.12447" lon="3.82814">
        <ele>608</ele>
        <time>2011-12-25T19:10:56Z</time>
      </trkpt>
      <trkpt lat="46.12462" lon="3.8286">
        <ele>601</ele>
        <time>2011-12-25T19:10:56Z</time>
      </trkpt>
      <trkpt lat="46.12455" lon="3.8289">
        <ele>597</ele>
        <time>2011-12-25T19:10:56Z</time>
      </trkpt>
      <trkpt lat="46.12434" lon="3.82908">
        <ele>595</ele>
        <time>2011-12-25T19:10:56Z</time>
      </trkpt>
      <trkpt lat="46.12409" lon="3.82915">
        <ele>591</ele>
        <time>2011-12-25T19:10:56Z</time>
      </trkpt>
      <trkpt lat="46.12353" lon="3.8288">
        <ele>592</ele>
        <time>2011-12-25T19:10:56Z</time>
      </trkpt>
      <trkpt lat="46.12293" lon="3.8285">
        <ele>594</ele>
        <time>2011-12-25T19:10:56Z</time>
      </trkpt>
      <trkpt lat="46.12237" lon="3.82842">
        <ele>593</ele>
        <time>2011-12-25T19:10:56Z</time>
      </trkpt>
      <trkpt lat="46.12207" lon="3.8284">
        <ele>592</ele>
        <time>2011-12-25T19:10:56Z</time>
      </trkpt>
      <trkpt lat="46.12194" lon="3.82893">
        <ele>583</ele>
        <time>2011-12-25T19:10:56Z</time>
      </trkpt>
      <trkpt lat="46.12193" lon="3.82929">
        <ele>578</ele>
        <time>2011-12-25T19:10:56Z</time>
      </trkpt>
      <trkpt lat="46.12204" lon="3.82976">
        <ele>573</ele>
        <time>2011-12-25T19:10:56Z</time>
      </trkpt>
      <trkpt lat="46.12222" lon="3.83023">
        <ele>566</ele>
        <time>2011-12-25T19:10:56Z</time>
      </trkpt>
      <trkpt lat="46.12235" lon="3.83066">
        <ele>558</ele>
        <time>2011-12-25T19:10:56Z</time>
      </trkpt>
      <trkpt lat="46.12237" lon="3.83093">
        <ele>552</ele>
        <time>2011-12-25T19:10:56Z</time>
      </trkpt>
      <trkpt lat="46.12191" lon="3.8314">
        <ele>548</ele>
        <time>2011-12-25T19:10:56Z</time>
      </trkpt>
      <trkpt lat="46.12157" lon="3.8319">
        <ele>542</ele>
        <time>2011-12-25T19:10:56Z</time>
      </trkpt>
      <trkpt lat="46.12124" lon="3.83234">
        <ele>534</ele>
        <time>2011-12-25T19:10:56Z</time>
      </trkpt>
      <trkpt lat="46.12118" lon="3.83294">
        <ele>522</ele>
        <time>2011-12-25T19:10:56Z</time>
      </trkpt>
      <trkpt lat="46.12111" lon="3.83395">
        <ele>506</ele>
        <time>2011-12-25T19:10:56Z</time>
      </trkpt>
      <trkpt lat="46.12107" lon="3.83488">
        <ele>490</ele>
        <time>2011-12-25T19:10:56Z</time>
      </trkpt>
      <trkpt lat="46.12102" lon="3.83542">
        <ele>505</ele>
        <time>2011-12-25T19:10:56Z</time>
      </trkpt>
      <trkpt lat="46.12086" lon="3.83578">
        <ele>515</ele>
        <time>2011-12-25T19:10:56Z</time>
      </trkpt>
      <trkpt lat="46.12066" lon="3.836">
        <ele>522</ele>
        <time>2011-12-25T19:10:56Z</time>
      </trkpt>
      <trkpt lat="46.12057" lon="3.83633">
        <ele>532</ele>
        <time>2011-12-25T19:10:56Z</time>
      </trkpt>
      <trkpt lat="46.12053" lon="3.83696">
        <ele>549</ele>
        <time>2011-12-25T19:10:56Z</time>
      </trkpt>
      <trkpt lat="46.12045" lon="3.83788">
        <ele>577</ele>
        <time>2011-12-25T19:10:56Z</time>
      </trkpt>
      <trkpt lat="46.12033" lon="3.83825">
        <ele>586</ele>
        <time>2011-12-25T19:10:56Z</time>
      </trkpt>
      <trkpt lat="46.12027" lon="3.83857">
        <ele>593</ele>
        <time>2011-12-25T19:10:56Z</time>
      </trkpt>
      <trkpt lat="46.12069" lon="3.83821">
        <ele>589</ele>
        <time>2011-12-25T19:10:56Z</time>
      </trkpt>
      <trkpt lat="46.12104" lon="3.83798">
        <ele>586</ele>
        <time>2011-12-25T19:10:56Z</time>
      </trkpt>
      <trkpt lat="46.12174" lon="3.83776">
        <ele>581</ele>
        <time>2011-12-25T19:10:56Z</time>
      </trkpt>
      <trkpt lat="46.12232" lon="3.83761">
        <ele>573</ele>
        <time>2011-12-25T19:10:56Z</time>
      </trkpt>
      <trkpt lat="46.12283" lon="3.8375">
        <ele>569</ele>
        <time>2011-12-25T19:10:56Z</time>
      </trkpt>
      <trkpt lat="46.12321" lon="3.83736">
        <ele>565</ele>
        <time>2011-12-25T19:10:56Z</time>
      </trkpt>
      <trkpt lat="46.12368" lon="3.83739">
        <ele>561</ele>
        <time>2011-12-25T19:10:56Z</time>
      </trkpt>
      <trkpt lat="46.12387" lon="3.83739">
        <ele>558</ele>
        <time>2011-12-25T19:10:56Z</time>
      </trkpt>
      <trkpt lat="46.12451" lon="3.8377">
        <ele>551</ele>
        <time>2011-12-25T19:10:56Z</time>
      </trkpt>
      <trkpt lat="46.12494" lon="3.83817">
        <ele>546</ele>
        <time>2011-12-25T19:10:56Z</time>
      </trkpt>
      <trkpt lat="46.12515" lon="3.83869">
        <ele>545</ele>
        <time>2011-12-25T19:10:56Z</time>
      </trkpt>
      <trkpt lat="46.1253" lon="3.83916">
        <ele>543</ele>
        <time>2011-12-25T19:10:56Z</time>
      </trkpt>
      <trkpt lat="46.12565" lon="3.83984">
        <ele>535</ele>
        <time>2011-12-25T19:10:56Z</time>
      </trkpt>
      <trkpt lat="46.12597" lon="3.84056">
        <ele>531</ele>
        <time>2011-12-25T19:10:56Z</time>
      </trkpt>
      <trkpt lat="46.12618" lon="3.84152">
        <ele>525</ele>
        <time>2011-12-25T19:10:56Z</time>
      </trkpt>
      <trkpt lat="46.12607" lon="3.84215">
        <ele>521</ele>
        <time>2011-12-25T19:10:56Z</time>
      </trkpt>
      <trkpt lat="46.12601" lon="3.84255">
        <ele>516</ele>
        <time>2011-12-25T19:10:56Z</time>
      </trkpt>
      <trkpt lat="46.12583" lon="3.84298">
        <ele>514</ele>
        <time>2011-12-25T19:10:56Z</time>
      </trkpt>
      <trkpt lat="46.12569" lon="3.8434">
        <ele>510</ele>
        <time>2011-12-25T19:10:56Z</time>
      </trkpt>
      <trkpt lat="46.12569" lon="3.84382">
        <ele>508</ele>
        <time>2011-12-25T19:10:56Z</time>
      </trkpt>
      <trkpt lat="46.12578" lon="3.8444">
        <ele>506</ele>
        <time>2011-12-25T19:10:56Z</time>
      </trkpt>
      <trkpt lat="46.12623" lon="3.84542">
        <ele>498</ele>
        <time>2011-12-25T19:10:56Z</time>
      </trkpt>
      <trkpt lat="46.12657" lon="3.84593">
        <ele>492</ele>
        <time>2011-12-25T19:10:56Z</time>
      </trkpt>
      <trkpt lat="46.12678" lon="3.84629">
        <ele>490</ele>
        <time>2011-12-25T19:10:56Z</time>
      </trkpt>
      <trkpt lat="46.12686" lon="3.84654">
        <ele>490</ele>
        <time>2011-12-25T19:10:56Z</time>
      </trkpt>
      <trkpt lat="46.12682" lon="3.84676">
        <ele>490</ele>
        <time>2011-12-25T19:10:56Z</time>
      </trkpt>
      <trkpt lat="46.12647" lon="3.84704">
        <ele>487</ele>
        <time>2011-12-25T19:10:56Z</time>
      </trkpt>
      <trkpt lat="46.12592" lon="3.84717">
        <ele>485</ele>
        <time>2011-12-25T19:10:56Z</time>
      </trkpt>
      <trkpt lat="46.12548" lon="3.84742">
        <ele>491</ele>
        <time>2011-12-25T19:10:56Z</time>
      </trkpt>
      <trkpt lat="46.12516" lon="3.84725">
        <ele>499</ele>
        <time>2011-12-25T19:10:56Z</time>
      </trkpt>
      <trkpt lat="46.12487" lon="3.84703">
        <ele>506</ele>
        <time>2011-12-25T19:10:56Z</time>
      </trkpt>
      <trkpt lat="46.12411" lon="3.84656">
        <ele>511</ele>
        <time>2011-12-25T19:10:56Z</time>
      </trkpt>
      <trkpt lat="46.1236" lon="3.84641">
        <ele>519</ele>
        <time>2011-12-25T19:10:56Z</time>
      </trkpt>
      <trkpt lat="46.12306" lon="3.84643">
        <ele>528</ele>
        <time>2011-12-25T19:10:56Z</time>
      </trkpt>
      <trkpt lat="46.12267" lon="3.84657">
        <ele>532</ele>
        <time>2011-12-25T19:10:56Z</time>
      </trkpt>
      <trkpt lat="46.12239" lon="3.84703">
        <ele>549</ele>
        <time>2011-12-25T19:10:56Z</time>
      </trkpt>
      <trkpt lat="46.12198" lon="3.84802">
        <ele>594</ele>
        <time>2011-12-25T19:10:56Z</time>
      </trkpt>
      <trkpt lat="46.12184" lon="3.8485">
        <ele>609</ele>
        <time>2011-12-25T19:10:56Z</time>
      </trkpt>
      <trkpt lat="46.12147" lon="3.84891">
        <ele>620</ele>
        <time>2011-12-25T19:10:56Z</time>
      </trkpt>
      <trkpt lat="46.1209" lon="3.84935">
        <ele>631</ele>
        <time>2011-12-25T19:10:56Z</time>
      </trkpt>
      <trkpt lat="46.12079" lon="3.84962">
        <ele>634</ele>
        <time>2011-12-25T19:10:56Z</time>
      </trkpt>
      <trkpt lat="46.12062" lon="3.85028">
        <ele>632</ele>
        <time>2011-12-25T19:10:56Z</time>
      </trkpt>
      <trkpt lat="46.12046" lon="3.85116">
        <ele>623</ele>
        <time>2011-12-25T19:10:56Z</time>
      </trkpt>
      <trkpt lat="46.12037" lon="3.85207">
        <ele>615</ele>
        <time>2011-12-25T19:10:56Z</time>
      </trkpt>
      <trkpt lat="46.12025" lon="3.85315">
        <ele>608</ele>
        <time>2011-12-25T19:10:56Z</time>
      </trkpt>
      <trkpt lat="46.12016" lon="3.854">
        <ele>604</ele>
        <time>2011-12-25T19:10:56Z</time>
      </trkpt>
      <trkpt lat="46.1201" lon="3.85461">
        <ele>600</ele>
        <time>2011-12-25T19:10:56Z</time>
      </trkpt>
      <trkpt lat="46.12016" lon="3.85496">
        <ele>597</ele>
        <time>2011-12-25T19:10:56Z</time>
      </trkpt>
      <trkpt lat="46.12047" lon="3.85543">
        <ele>595</ele>
        <time>2011-12-25T19:10:56Z</time>
      </trkpt>
      <trkpt lat="46.12049" lon="3.85585">
        <ele>594</ele>
        <time>2011-12-25T19:10:56Z</time>
      </trkpt>
      <trkpt lat="46.12061" lon="3.8562">
        <ele>593</ele>
        <time>2011-12-25T19:10:56Z</time>
      </trkpt>
      <trkpt lat="46.12072" lon="3.8568">
        <ele>585</ele>
        <time>2011-12-25T19:10:56Z</time>
      </trkpt>
      <trkpt lat="46.12068" lon="3.85722">
        <ele>578</ele>
        <time>2011-12-25T19:10:56Z</time>
      </trkpt>
      <trkpt lat="46.12058" lon="3.85751">
        <ele>573</ele>
        <time>2011-12-25T19:10:56Z</time>
      </trkpt>
      <trkpt lat="46.12046" lon="3.85791">
        <ele>567</ele>
        <time>2011-12-25T19:10:56Z</time>
      </trkpt>
      <trkpt lat="46.12024" lon="3.85737">
        <ele>577</ele>
        <time>2011-12-25T19:10:56Z</time>
      </trkpt>
      <trkpt lat="46.12002" lon="3.8572">
        <ele>580</ele>
        <time>2011-12-25T19:10:56Z</time>
      </trkpt>
      <trkpt lat="46.11964" lon="3.85725">
        <ele>581</ele>
        <time>2011-12-25T19:10:56Z</time>
      </trkpt>
      <trkpt lat="46.11924" lon="3.85737">
        <ele>581</ele>
        <time>2011-12-25T19:10:56Z</time>
      </trkpt>
      <trkpt lat="46.11897" lon="3.85751">
        <ele>580</ele>
        <time>2011-12-25T19:10:56Z</time>
      </trkpt>
      <trkpt lat="46.11868" lon="3.85783">
        <ele>581</ele>
        <time>2011-12-25T19:10:56Z</time>
      </trkpt>
      <trkpt lat="46.11795" lon="3.85794">
        <ele>591</ele>
        <time>2011-12-25T19:10:56Z</time>
      </trkpt>
      <trkpt lat="46.11698" lon="3.85778">
        <ele>609</ele>
        <time>2011-12-25T19:10:56Z</time>
      </trkpt>
      <trkpt lat="46.11589" lon="3.8576">
        <ele>634</ele>
        <time>2011-12-25T19:10:56Z</time>
      </trkpt>
      <trkpt lat="46.11544" lon="3.85759">
        <ele>644</ele>
        <time>2011-12-25T19:10:56Z</time>
      </trkpt>
      <trkpt lat="46.11492" lon="3.85779">
        <ele>654</ele>
        <time>2011-12-25T19:10:56Z</time>
      </trkpt>
      <trkpt lat="46.11449" lon="3.85782">
        <ele>666</ele>
        <time>2011-12-25T19:10:56Z</time>
      </trkpt>
      <trkpt lat="46.1142" lon="3.85769">
        <ele>676</ele>
        <time>2011-12-25T19:10:56Z</time>
      </trkpt>
      <trkpt lat="46.11396" lon="3.85705">
        <ele>686</ele>
        <time>2011-12-25T19:10:56Z</time>
      </trkpt>
      <trkpt lat="46.11391" lon="3.85658">
        <ele>687</ele>
        <time>2011-12-25T19:10:56Z</time>
      </trkpt>
      <trkpt lat="46.1137" lon="3.85638">
        <ele>689</ele>
        <time>2011-12-25T19:10:56Z</time>
      </trkpt>
      <trkpt lat="46.11342" lon="3.85635">
        <ele>692</ele>
        <time>2011-12-25T19:10:56Z</time>
      </trkpt>
      <trkpt lat="46.11288" lon="3.85648">
        <ele>698</ele>
        <time>2011-12-25T19:10:56Z</time>
      </trkpt>
      <trkpt lat="46.11259" lon="3.85665">
        <ele>701</ele>
        <time>2011-12-25T19:10:56Z</time>
      </trkpt>
      <trkpt lat="46.11224" lon="3.85645">
        <ele>705</ele>
        <time>2011-12-25T19:10:56Z</time>
      </trkpt>
      <trkpt lat="46.11181" lon="3.85686">
        <ele>706</ele>
        <time>2011-12-25T19:10:56Z</time>
      </trkpt>
      <trkpt lat="46.11134" lon="3.85757">
        <ele>702</ele>
        <time>2011-12-25T19:10:56Z</time>
      </trkpt>
      <trkpt lat="46.11094" lon="3.85832">
        <ele>697</ele>
        <time>2011-12-25T19:10:56Z</time>
      </trkpt>
      <trkpt lat="46.11046" lon="3.85867">
        <ele>692</ele>
        <time>2011-12-25T19:10:56Z</time>
      </trkpt>
      <trkpt lat="46.11002" lon="3.85948">
        <ele>685</ele>
        <time>2011-12-25T19:10:56Z</time>
      </trkpt>
      <trkpt lat="46.10983" lon="3.86001">
        <ele>681</ele>
        <time>2011-12-25T19:10:56Z</time>
      </trkpt>
      <trkpt lat="46.10973" lon="3.86047">
        <ele>679</ele>
        <time>2011-12-25T19:10:56Z</time>
      </trkpt>
      <trkpt lat="46.10962" lon="3.86074">
        <ele>676</ele>
        <time>2011-12-25T19:10:56Z</time>
      </trkpt>
      <trkpt lat="46.10951" lon="3.86103">
        <ele>673</ele>
        <time>2011-12-25T19:10:56Z</time>
      </trkpt>
      <trkpt lat="46.10927" lon="3.86098">
        <ele>672</ele>
        <time>2011-12-25T19:10:56Z</time>
      </trkpt>
      <trkpt lat="46.10907" lon="3.86099">
        <ele>670</ele>
        <time>2011-12-25T19:10:56Z</time>
      </trkpt>
      <trkpt lat="46.10868" lon="3.86141">
        <ele>664</ele>
        <time>2011-12-25T19:10:56Z</time>
      </trkpt>
      <trkpt lat="46.10805" lon="3.86208">
        <ele>653</ele>
        <time>2011-12-25T19:10:56Z</time>
      </trkpt>
      <trkpt lat="46.10779" lon="3.8625">
        <ele>646</ele>
        <time>2011-12-25T19:10:56Z</time>
      </trkpt>
      <trkpt lat="46.10744" lon="3.8627">
        <ele>639</ele>
        <time>2011-12-25T19:10:56Z</time>
      </trkpt>
      <trkpt lat="46.10694" lon="3.86279">
        <ele>627</ele>
        <time>2011-12-25T19:10:56Z</time>
      </trkpt>
      <trkpt lat="46.10664" lon="3.86278">
        <ele>618</ele>
        <time>2011-12-25T19:10:56Z</time>
      </trkpt>
      <trkpt lat="46.10646" lon="3.8626">
        <ele>612</ele>
        <time>2011-12-25T19:10:56Z</time>
      </trkpt>
      <trkpt lat="46.10631" lon="3.86261">
        <ele>607</ele>
        <time>2011-12-25T19:10:56Z</time>
      </trkpt>
      <trkpt lat="46.10609" lon="3.86249">
        <ele>599</ele>
        <time>2011-12-25T19:10:56Z</time>
      </trkpt>
      <trkpt lat="46.10607" lon="3.862">
        <ele>601</ele>
        <time>2011-12-25T19:10:56Z</time>
      </trkpt>
      <trkpt lat="46.10618" lon="3.86096">
        <ele>613</ele>
        <time>2011-12-25T19:10:56Z</time>
      </trkpt>
      <trkpt lat="46.10637" lon="3.86006">
        <ele>615</ele>
        <time>2011-12-25T19:10:56Z</time>
      </trkpt>
      <trkpt lat="46.10658" lon="3.85979">
        <ele>619</ele>
        <time>2011-12-25T19:10:56Z</time>
      </trkpt>
      <trkpt lat="46.10681" lon="3.85924">
        <ele>621</ele>
        <time>2011-12-25T19:10:56Z</time>
      </trkpt>
      <trkpt lat="46.10691" lon="3.85871">
        <ele>623</ele>
        <time>2011-12-25T19:10:56Z</time>
      </trkpt>
      <trkpt lat="46.10688" lon="3.85832">
        <ele>625</ele>
        <time>2011-12-25T19:10:56Z</time>
      </trkpt>
      <trkpt lat="46.10673" lon="3.85782">
        <ele>628</ele>
        <time>2011-12-25T19:10:56Z</time>
      </trkpt>
      <trkpt lat="46.10672" lon="3.85717">
        <ele>634</ele>
        <time>2011-12-25T19:10:56Z</time>
      </trkpt>
      <trkpt lat="46.10686" lon="3.85637">
        <ele>636</ele>
        <time>2011-12-25T19:10:56Z</time>
      </trkpt>
      <trkpt lat="46.10697" lon="3.85577">
        <ele>638</ele>
        <time>2011-12-25T19:10:56Z</time>
      </trkpt>
      <trkpt lat="46.10692" lon="3.85528">
        <ele>642</ele>
        <time>2011-12-25T19:10:56Z</time>
      </trkpt>
      <trkpt lat="46.10674" lon="3.85492">
        <ele>644</ele>
        <time>2011-12-25T19:10:56Z</time>
      </trkpt>
      <trkpt lat="46.10641" lon="3.85436">
        <ele>645</ele>
        <time>2011-12-25T19:10:56Z</time>
      </trkpt>
      <trkpt lat="46.10619" lon="3.85434">
        <ele>646</ele>
        <time>2011-12-25T19:10:56Z</time>
      </trkpt>
      <trkpt lat="46.10582" lon="3.85472">
        <ele>644</ele>
        <time>2011-12-25T19:10:56Z</time>
      </trkpt>
      <trkpt lat="46.10554" lon="3.8551">
        <ele>643</ele>
        <time>2011-12-25T19:10:56Z</time>
      </trkpt>
      <trkpt lat="46.10543" lon="3.85555">
        <ele>637</ele>
        <time>2011-12-25T19:10:56Z</time>
      </trkpt>
      <trkpt lat="46.10513" lon="3.85622">
        <ele>634</ele>
        <time>2011-12-25T19:10:56Z</time>
      </trkpt>
      <trkpt lat="46.10489" lon="3.85652">
        <ele>637</ele>
        <time>2011-12-25T19:10:56Z</time>
      </trkpt>
      <trkpt lat="46.10465" lon="3.8566">
        <ele>640</ele>
        <time>2011-12-25T19:10:56Z</time>
      </trkpt>
      <trkpt lat="46.10436" lon="3.85651">
        <ele>643</ele>
        <time>2011-12-25T19:10:56Z</time>
      </trkpt>
      <trkpt lat="46.10404" lon="3.85606">
        <ele>648</ele>
        <time>2011-12-25T19:10:56Z</time>
      </trkpt>
      <trkpt lat="46.10397" lon="3.85522">
        <ele>655</ele>
        <time>2011-12-25T19:10:56Z</time>
      </trkpt>
      <trkpt lat="46.10408" lon="3.85457">
        <ele>662</ele>
        <time>2011-12-25T19:10:56Z</time>
      </trkpt>
      <trkpt lat="46.10442" lon="3.85379">
        <ele>668</ele>
        <time>2011-12-25T19:10:56Z</time>
      </trkpt>
      <trkpt lat="46.10482" lon="3.85335">
        <ele>670</ele>
        <time>2011-12-25T19:10:56Z</time>
      </trkpt>
      <trkpt lat="46.10513" lon="3.853">
        <ele>672</ele>
        <time>2011-12-25T19:10:56Z</time>
      </trkpt>
      <trkpt lat="46.10534" lon="3.85249">
        <ele>676</ele>
        <time>2011-12-25T19:10:56Z</time>
      </trkpt>
      <trkpt lat="46.10549" lon="3.85201">
        <ele>679</ele>
        <time>2011-12-25T19:10:56Z</time>
      </trkpt>
      <trkpt lat="46.10542" lon="3.85136">
        <ele>687</ele>
        <time>2011-12-25T19:10:56Z</time>
      </trkpt>
      <trkpt lat="46.10519" lon="3.85103">
        <ele>693</ele>
        <time>2011-12-25T19:10:56Z</time>
      </trkpt>
      <trkpt lat="46.10505" lon="3.85049">
        <ele>698</ele>
        <time>2011-12-25T19:10:56Z</time>
      </trkpt>
      <trkpt lat="46.1053" lon="3.84992">
        <ele>702</ele>
        <time>2011-12-25T19:10:56Z</time>
      </trkpt>
      <trkpt lat="46.10581" lon="3.84958">
        <ele>708</ele>
        <time>2011-12-25T19:10:56Z</time>
      </trkpt>
      <trkpt lat="46.10618" lon="3.84912">
        <ele>712</ele>
        <time>2011-12-25T19:10:56Z</time>
      </trkpt>
      <trkpt lat="46.10645" lon="3.84885">
        <ele>712</ele>
        <time>2011-12-25T19:10:56Z</time>
      </trkpt>
      <trkpt lat="46.10662" lon="3.84839">
        <ele>715</ele>
        <time>2011-12-25T19:10:56Z</time>
      </trkpt>
      <trkpt lat="46.10633" lon="3.84854">
        <ele>716</ele>
        <time>2011-12-25T19:10:56Z</time>
      </trkpt>
      <trkpt lat="46.10569" lon="3.84889">
        <ele>717</ele>
        <time>2011-12-25T19:10:56Z</time>
      </trkpt>
      <trkpt lat="46.10525" lon="3.84917">
        <ele>715</ele>
        <time>2011-12-25T19:10:56Z</time>
      </trkpt>
      <trkpt lat="46.10479" lon="3.84955">
        <ele>711</ele>
        <time>2011-12-25T19:10:56Z</time>
      </trkpt>
      <trkpt lat="46.10451" lon="3.8502">
        <ele>709</ele>
        <time>2011-12-25T19:10:56Z</time>
      </trkpt>
      <trkpt lat="46.10433" lon="3.85062">
        <ele>709</ele>
        <time>2011-12-25T19:10:56Z</time>
      </trkpt>
      <trkpt lat="46.10414" lon="3.85087">
        <ele>710</ele>
        <time>2011-12-25T19:10:56Z</time>
      </trkpt>
      <trkpt lat="46.10385" lon="3.85093">
        <ele>712</ele>
        <time>2011-12-25T19:10:56Z</time>
      </trkpt>
      <trkpt lat="46.10315" lon="3.85093">
        <ele>712</ele>
        <time>2011-12-25T19:10:56Z</time>
      </trkpt>
      <trkpt lat="46.10265" lon="3.85094">
        <ele>707</ele>
        <time>2011-12-25T19:10:56Z</time>
      </trkpt>
      <trkpt lat="46.10227" lon="3.85114">
        <ele>703</ele>
        <time>2011-12-25T19:10:56Z</time>
      </trkpt>
      <trkpt lat="46.1016" lon="3.85174">
        <ele>703</ele>
        <time>2011-12-25T19:10:56Z</time>
      </trkpt>
      <trkpt lat="46.1009" lon="3.85209">
        <ele>702</ele>
        <time>2011-12-25T19:10:56Z</time>
      </trkpt>
      <trkpt lat="46.10042" lon="3.85256">
        <ele>698</ele>
        <time>2011-12-25T19:10:56Z</time>
      </trkpt>
      <trkpt lat="46.09987" lon="3.85282">
        <ele>702</ele>
        <time>2011-12-25T19:10:56Z</time>
      </trkpt>
      <trkpt lat="46.09961" lon="3.8529">
        <ele>704</ele>
        <time>2011-12-25T19:10:56Z</time>
      </trkpt>
      <trkpt lat="46.0993" lon="3.85325">
        <ele>704</ele>
        <time>2011-12-25T19:10:56Z</time>
      </trkpt>
      <trkpt lat="46.09922" lon="3.85352">
        <ele>703</ele>
        <time>2011-12-25T19:10:56Z</time>
      </trkpt>
      <trkpt lat="46.09908" lon="3.8539">
        <ele>701</ele>
        <time>2011-12-25T19:10:56Z</time>
      </trkpt>
      <trkpt lat="46.09888" lon="3.85427">
        <ele>700</ele>
        <time>2011-12-25T19:10:56Z</time>
      </trkpt>
      <trkpt lat="46.09859" lon="3.85426">
        <ele>704</ele>
        <time>2011-12-25T19:10:56Z</time>
      </trkpt>
      <trkpt lat="46.09843" lon="3.85432">
        <ele>706</ele>
        <time>2011-12-25T19:10:56Z</time>
      </trkpt>
      <trkpt lat="46.09825" lon="3.85509">
        <ele>699</ele>
        <time>2011-12-25T19:10:56Z</time>
      </trkpt>
      <trkpt lat="46.09802" lon="3.85617">
        <ele>693</ele>
        <time>2011-12-25T19:10:56Z</time>
      </trkpt>
      <trkpt lat="46.09782" lon="3.85668">
        <ele>696</ele>
        <time>2011-12-25T19:10:56Z</time>
      </trkpt>
      <trkpt lat="46.09766" lon="3.85737">
        <ele>697</ele>
        <time>2011-12-25T19:10:56Z</time>
      </trkpt>
      <trkpt lat="46.09751" lon="3.85813">
        <ele>699</ele>
        <time>2011-12-25T19:10:56Z</time>
      </trkpt>
      <trkpt lat="46.09722" lon="3.8594">
        <ele>703</ele>
        <time>2011-12-25T19:10:56Z</time>
      </trkpt>
      <trkpt lat="46.09703" lon="3.86012">
        <ele>702</ele>
        <time>2011-12-25T19:10:56Z</time>
      </trkpt>
      <trkpt lat="46.09669" lon="3.86074">
        <ele>701</ele>
        <time>2011-12-25T19:10:56Z</time>
      </trkpt>
      <trkpt lat="46.09613" lon="3.8611">
        <ele>701</ele>
        <time>2011-12-25T19:10:56Z</time>
      </trkpt>
      <trkpt lat="46.09581" lon="3.86104">
        <ele>699</ele>
        <time>2011-12-25T19:10:56Z</time>
      </trkpt>
      <trkpt lat="46.09524" lon="3.86114">
        <ele>691</ele>
        <time>2011-12-25T19:10:56Z</time>
      </trkpt>
      <trkpt lat="46.09487" lon="3.8615">
        <ele>687</ele>
        <time>2011-12-25T19:10:56Z</time>
      </trkpt>
      <trkpt lat="46.09442" lon="3.86226">
        <ele>683</ele>
        <time>2011-12-25T19:10:56Z</time>
      </trkpt>
      <trkpt lat="46.09421" lon="3.86277">
        <ele>681</ele>
        <time>2011-12-25T19:10:56Z</time>
      </trkpt>
      <trkpt lat="46.09399" lon="3.86336">
        <ele>679</ele>
        <time>2011-12-25T19:10:56Z</time>
      </trkpt>
      <trkpt lat="46.09395" lon="3.86364">
        <ele>678</ele>
        <time>2011-12-25T19:10:56Z</time>
      </trkpt>
      <trkpt lat="46.09318" lon="3.8635">
        <ele>687</ele>
        <time>2011-12-25T19:10:56Z</time>
      </trkpt>
      <trkpt lat="46.09249" lon="3.86316">
        <ele>689</ele>
        <time>2011-12-25T19:10:56Z</time>
      </trkpt>
      <trkpt lat="46.09211" lon="3.86254">
        <ele>691</ele>
        <time>2011-12-25T19:10:56Z</time>
      </trkpt>
      <trkpt lat="46.09189" lon="3.86172">
        <ele>699</ele>
        <time>2011-12-25T19:10:56Z</time>
      </trkpt>
      <trkpt lat="46.09164" lon="3.86105">
        <ele>703</ele>
        <time>2011-12-25T19:10:56Z</time>
      </trkpt>
      <trkpt lat="46.09143" lon="3.86085">
        <ele>702</ele>
        <time>2011-12-25T19:10:56Z</time>
      </trkpt>
      <trkpt lat="46.0908" lon="3.86024">
        <ele>699</ele>
        <time>2011-12-25T19:10:56Z</time>
      </trkpt>
      <trkpt lat="46.09057" lon="3.85978">
        <ele>700</ele>
        <time>2011-12-25T19:10:56Z</time>
      </trkpt>
      <trkpt lat="46.0903" lon="3.85961">
        <ele>697</ele>
        <time>2011-12-25T19:10:56Z</time>
      </trkpt>
      <trkpt lat="46.08998" lon="3.85949">
        <ele>700</ele>
        <time>2011-12-25T19:10:56Z</time>
      </trkpt>
      <trkpt lat="46.08891" lon="3.85959">
        <ele>717</ele>
        <time>2011-12-25T19:10:56Z</time>
      </trkpt>
      <trkpt lat="46.0883" lon="3.85991">
        <ele>722</ele>
        <time>2011-12-25T19:10:56Z</time>
      </trkpt>
      <trkpt lat="46.08738" lon="3.8604">
        <ele>731</ele>
        <time>2011-12-25T19:10:56Z</time>
      </trkpt>
      <trkpt lat="46.08654" lon="3.86088">
        <ele>741</ele>
        <time>2011-12-25T19:10:56Z</time>
      </trkpt>
      <trkpt lat="46.08616" lon="3.86088">
        <ele>749</ele>
        <time>2011-12-25T19:10:56Z</time>
      </trkpt>
      <trkpt lat="46.0855" lon="3.86162">
        <ele>753</ele>
        <time>2011-12-25T19:10:56Z</time>
      </trkpt>
      <trkpt lat="46.08498" lon="3.86221">
        <ele>750</ele>
        <time>2011-12-25T19:10:56Z</time>
      </trkpt>
      <trkpt lat="46.0844" lon="3.8629">
        <ele>744</ele>
        <time>2011-12-25T19:10:56Z</time>
      </trkpt>
      <trkpt lat="46.08403" lon="3.86381">
        <ele>731</ele>
        <time>2011-12-25T19:10:56Z</time>
      </trkpt>
      <trkpt lat="46.0836" lon="3.86472">
        <ele>725</ele>
        <time>2011-12-25T19:10:56Z</time>
      </trkpt>
      <trkpt lat="46.08311" lon="3.86539">
        <ele>719</ele>
        <time>2011-12-25T19:10:56Z</time>
      </trkpt>
      <trkpt lat="46.08262" lon="3.86567">
        <ele>718</ele>
        <time>2011-12-25T19:10:56Z</time>
      </trkpt>
      <trkpt lat="46.08223" lon="3.86593">
        <ele>717</ele>
        <time>2011-12-25T19:10:56Z</time>
      </trkpt>
      <trkpt lat="46.08187" lon="3.86621">
        <ele>716</ele>
        <time>2011-12-25T19:10:56Z</time>
      </trkpt>
      <trkpt lat="46.08153" lon="3.86609">
        <ele>722</ele>
        <time>2011-12-25T19:10:56Z</time>
      </trkpt>
      <trkpt lat="46.0811" lon="3.86627">
        <ele>729</ele>
        <time>2011-12-25T19:10:56Z</time>
      </trkpt>
      <trkpt lat="46.08068" lon="3.86663">
        <ele>734</ele>
        <time>2011-12-25T19:10:56Z</time>
      </trkpt>
      <trkpt lat="46.08044" lon="3.86701">
        <ele>726</ele>
        <time>2011-12-25T19:10:56Z</time>
      </trkpt>
      <trkpt lat="46.08004" lon="3.86773">
        <ele>717</ele>
        <time>2011-12-25T19:10:56Z</time>
      </trkpt>
      <trkpt lat="46.07978" lon="3.86822">
        <ele>720</ele>
        <time>2011-12-25T19:10:56Z</time>
      </trkpt>
      <trkpt lat="46.07971" lon="3.86853">
        <ele>719</ele>
        <time>2011-12-25T19:10:56Z</time>
      </trkpt>
      <trkpt lat="46.07958" lon="3.8687">
        <ele>720</ele>
        <time>2011-12-25T19:10:56Z</time>
      </trkpt>
      <trkpt lat="46.07954" lon="3.86831">
        <ele>724</ele>
        <time>2011-12-25T19:10:56Z</time>
      </trkpt>
      <trkpt lat="46.07955" lon="3.8676">
        <ele>731</ele>
        <time>2011-12-25T19:10:56Z</time>
      </trkpt>
      <trkpt lat="46.07973" lon="3.86707">
        <ele>736</ele>
        <time>2011-12-25T19:10:56Z</time>
      </trkpt>
      <trkpt lat="46.07999" lon="3.8668">
        <ele>738</ele>
        <time>2011-12-25T19:10:56Z</time>
      </trkpt>
      <trkpt lat="46.08029" lon="3.8663">
        <ele>746</ele>
        <time>2011-12-25T19:10:56Z</time>
      </trkpt>
      <trkpt lat="46.08048" lon="3.86536">
        <ele>758</ele>
        <time>2011-12-25T19:10:56Z</time>
      </trkpt>
      <trkpt lat="46.08062" lon="3.8638">
        <ele>774</ele>
        <time>2011-12-25T19:10:56Z</time>
      </trkpt>
      <trkpt lat="46.08062" lon="3.86315">
        <ele>780</ele>
        <time>2011-12-25T19:10:56Z</time>
      </trkpt>
      <trkpt lat="46.08071" lon="3.86209">
        <ele>788</ele>
        <time>2011-12-25T19:10:56Z</time>
      </trkpt>
      <trkpt lat="46.08074" lon="3.86169">
        <ele>790</ele>
        <time>2011-12-25T19:10:56Z</time>
      </trkpt>
      <trkpt lat="46.08125" lon="3.86121">
        <ele>789</ele>
        <time>2011-12-25T19:10:56Z</time>
      </trkpt>
      <trkpt lat="46.08171" lon="3.86063">
        <ele>792</ele>
        <time>2011-12-25T19:10:56Z</time>
      </trkpt>
      <trkpt lat="46.08198" lon="3.86043">
        <ele>796</ele>
        <time>2011-12-25T19:10:56Z</time>
      </trkpt>
      <trkpt lat="46.08242" lon="3.86015">
        <ele>803</ele>
        <time>2011-12-25T19:10:56Z</time>
      </trkpt>
      <trkpt lat="46.08274" lon="3.85987">
        <ele>808</ele>
        <time>2011-12-25T19:10:56Z</time>
      </trkpt>
      <trkpt lat="46.08292" lon="3.85939">
        <ele>815</ele>
        <time>2011-12-25T19:10:56Z</time>
      </trkpt>
      <trkpt lat="46.08326" lon="3.8588">
        <ele>825</ele>
        <time>2011-12-25T19:10:56Z</time>
      </trkpt>
      <trkpt lat="46.08359" lon="3.85801">
        <ele>836</ele>
        <time>2011-12-25T19:10:56Z</time>
      </trkpt>
      <trkpt lat="46.08404" lon="3.85715">
        <ele>836</ele>
        <time>2011-12-25T19:10:56Z</time>
      </trkpt>
      <trkpt lat="46.08436" lon="3.85666">
        <ele>836</ele>
        <time>2011-12-25T19:10:56Z</time>
      </trkpt>
      <trkpt lat="46.08473" lon="3.85615">
        <ele>836</ele>
        <time>2011-12-25T19:10:56Z</time>
      </trkpt>
      <trkpt lat="46.08498" lon="3.85597">
        <ele>837</ele>
        <time>2011-12-25T19:10:56Z</time>
      </trkpt>
      <trkpt lat="46.08541" lon="3.85571">
        <ele>835</ele>
        <time>2011-12-25T19:10:56Z</time>
      </trkpt>
      <trkpt lat="46.08585" lon="3.85538">
        <ele>829</ele>
        <time>2011-12-25T19:10:56Z</time>
      </trkpt>
      <trkpt lat="46.08621" lon="3.85503">
        <ele>824</ele>
        <time>2011-12-25T19:10:56Z</time>
      </trkpt>
      <trkpt lat="46.08657" lon="3.85465">
        <ele>822</ele>
        <time>2011-12-25T19:10:56Z</time>
      </trkpt>
      <trkpt lat="46.08744" lon="3.8536">
        <ele>814</ele>
        <time>2011-12-25T19:10:56Z</time>
      </trkpt>
      <trkpt lat="46.088" lon="3.85292">
        <ele>811</ele>
        <time>2011-12-25T19:10:56Z</time>
      </trkpt>
      <trkpt lat="46.08842" lon="3.85228">
        <ele>809</ele>
        <time>2011-12-25T19:10:56Z</time>
      </trkpt>
      <trkpt lat="46.08869" lon="3.85184">
        <ele>808</ele>
        <time>2011-12-25T19:10:56Z</time>
      </trkpt>
      <trkpt lat="46.08902" lon="3.85152">
        <ele>808</ele>
        <time>2011-12-25T19:10:56Z</time>
      </trkpt>
      <trkpt lat="46.08937" lon="3.85127">
        <ele>807</ele>
        <time>2011-12-25T19:10:56Z</time>
      </trkpt>
      <trkpt lat="46.08974" lon="3.85117">
        <ele>807</ele>
        <time>2011-12-25T19:10:56Z</time>
      </trkpt>
      <trkpt lat="46.09007" lon="3.85092">
        <ele>807</ele>
        <time>2011-12-25T19:10:56Z</time>
      </trkpt>
      <trkpt lat="46.09031" lon="3.85078">
        <ele>808</ele>
        <time>2011-12-25T19:10:56Z</time>
      </trkpt>
      <trkpt lat="46.09089" lon="3.85043">
        <ele>811</ele>
        <time>2011-12-25T19:10:56Z</time>
      </trkpt>
      <trkpt lat="46.09151" lon="3.8501">
        <ele>818</ele>
        <time>2011-12-25T19:10:56Z</time>
      </trkpt>
      <trkpt lat="46.09202" lon="3.84991">
        <ele>824</ele>
        <time>2011-12-25T19:10:56Z</time>
      </trkpt>
      <trkpt lat="46.09226" lon="3.8499">
        <ele>827</ele>
        <time>2011-12-25T19:10:56Z</time>
      </trkpt>
      <trkpt lat="46.09281" lon="3.84998">
        <ele>833</ele>
        <time>2011-12-25T19:10:56Z</time>
      </trkpt>
      <trkpt lat="46.09314" lon="3.8505">
        <ele>836</ele>
        <time>2011-12-25T19:10:56Z</time>
      </trkpt>
      <trkpt lat="46.09339" lon="3.85069">
        <ele>838</ele>
        <time>2011-12-25T19:10:56Z</time>
      </trkpt>
      <trkpt lat="46.09376" lon="3.85044">
        <ele>840</ele>
        <time>2011-12-25T19:10:56Z</time>
      </trkpt>
      <trkpt lat="46.09407" lon="3.85019">
        <ele>840</ele>
        <time>2011-12-25T19:10:56Z</time>
      </trkpt>
      <trkpt lat="46.09433" lon="3.85005">
        <ele>840</ele>
        <time>2011-12-25T19:10:56Z</time>
      </trkpt>
      <trkpt lat="46.0945" lon="3.85001">
        <ele>839</ele>
        <time>2011-12-25T19:10:56Z</time>
      </trkpt>
      <trkpt lat="46.09459" lon="3.84983">
        <ele>839</ele>
        <time>2011-12-25T19:10:56Z</time>
      </trkpt>
      <trkpt lat="46.09468" lon="3.84937">
        <ele>836</ele>
        <time>2011-12-25T19:10:56Z</time>
      </trkpt>
      <trkpt lat="46.09495" lon="3.84899">
        <ele>832</ele>
        <time>2011-12-25T19:10:56Z</time>
      </trkpt>
      <trkpt lat="46.09515" lon="3.84885">
        <ele>831</ele>
        <time>2011-12-25T19:10:56Z</time>
      </trkpt>
      <trkpt lat="46.0953" lon="3.8487">
        <ele>829</ele>
        <time>2011-12-25T19:10:56Z</time>
      </trkpt>
      <trkpt lat="46.09548" lon="3.84861">
        <ele>827</ele>
        <time>2011-12-25T19:10:56Z</time>
      </trkpt>
      <trkpt lat="46.0955" lon="3.84848">
        <ele>824</ele>
        <time>2011-12-25T19:10:56Z</time>
      </trkpt>
      <trkpt lat="46.09535" lon="3.84827">
        <ele>819</ele>
        <time>2011-12-25T19:10:56Z</time>
      </trkpt>
      <trkpt lat="46.09506" lon="3.84821">
        <ele>816</ele>
        <time>2011-12-25T19:10:56Z</time>
      </trkpt>
      <trkpt lat="46.09492" lon="3.84813">
        <ele>813</ele>
        <time>2011-12-25T19:10:56Z</time>
      </trkpt>
      <trkpt lat="46.09466" lon="3.8481">
        <ele>812</ele>
        <time>2011-12-25T19:10:56Z</time>
      </trkpt>
      <trkpt lat="46.09442" lon="3.84803">
        <ele>809</ele>
        <time>2011-12-25T19:10:56Z</time>
      </trkpt>
      <trkpt lat="46.09436" lon="3.84793">
        <ele>806</ele>
        <time>2011-12-25T19:10:56Z</time>
      </trkpt>
      <trkpt lat="46.09445" lon="3.84769">
        <ele>802</ele>
        <time>2011-12-25T19:10:56Z</time>
      </trkpt>
      <trkpt lat="46.0948" lon="3.84759">
        <ele>801</ele>
        <time>2011-12-25T19:10:56Z</time>
      </trkpt>
      <trkpt lat="46.09519" lon="3.84746">
        <ele>799</ele>
        <time>2011-12-25T19:10:56Z</time>
      </trkpt>
      <trkpt lat="46.09545" lon="3.84741">
        <ele>797</ele>
        <time>2011-12-25T19:10:56Z</time>
      </trkpt>
      <trkpt lat="46.09564" lon="3.8474">
        <ele>796</ele>
        <time>2011-12-25T19:10:56Z</time>
      </trkpt>
      <trkpt lat="46.09588" lon="3.84748">
        <ele>796</ele>
        <time>2011-12-25T19:10:56Z</time>
      </trkpt>
      <trkpt lat="46.09607" lon="3.84758">
        <ele>796</ele>
        <time>2011-12-25T19:10:56Z</time>
      </trkpt>
      <trkpt lat="46.09614" lon="3.84764">
        <ele>797</ele>
        <time>2011-12-25T19:10:56Z</time>
      </trkpt>
      <trkpt lat="46.09625" lon="3.84765">
        <ele>795</ele>
        <time>2011-12-25T19:10:56Z</time>
      </trkpt>
      <trkpt lat="46.0963" lon="3.84749">
        <ele>789</ele>
        <time>2011-12-25T19:10:56Z</time>
      </trkpt>
      <trkpt lat="46.09625" lon="3.84729">
        <ele>786</ele>
        <time>2011-12-25T19:10:56Z</time>
      </trkpt>
      <trkpt lat="46.09602" lon="3.84703">
        <ele>783</ele>
        <time>2011-12-25T19:10:56Z</time>
      </trkpt>
      <trkpt lat="46.09578" lon="3.84696">
        <ele>784</ele>
        <time>2011-12-25T19:10:56Z</time>
      </trkpt>
      <trkpt lat="46.09538" lon="3.8467">
        <ele>779</ele>
        <time>2011-12-25T19:10:56Z</time>
      </trkpt>
      <trkpt lat="46.09508" lon="3.84655">
        <ele>775</ele>
        <time>2011-12-25T19:10:56Z</time>
      </trkpt>
      <trkpt lat="46.09479" lon="3.84652">
        <ele>774</ele>
        <time>2011-12-25T19:10:56Z</time>
      </trkpt>
      <trkpt lat="46.09439" lon="3.8465">
        <ele>771</ele>
        <time>2011-12-25T19:10:56Z</time>
      </trkpt>
      <trkpt lat="46.09402" lon="3.84645">
        <ele>769</ele>
        <time>2011-12-25T19:10:56Z</time>
      </trkpt>
      <trkpt lat="46.09356" lon="3.84625">
        <ele>769</ele>
        <time>2011-12-25T19:10:56Z</time>
      </trkpt>
      <trkpt lat="46.09301" lon="3.84599">
        <ele>770</ele>
        <time>2011-12-25T19:10:56Z</time>
      </trkpt>
      <trkpt lat="46.09256" lon="3.84562">
        <ele>768</ele>
        <time>2011-12-25T19:10:56Z</time>
      </trkpt>
      <trkpt lat="46.09208" lon="3.84525">
        <ele>767</ele>
        <time>2011-12-25T19:10:56Z</time>
      </trkpt>
      <trkpt lat="46.09146" lon="3.84478">
        <ele>764</ele>
        <time>2011-12-25T19:10:56Z</time>
      </trkpt>
      <trkpt lat="46.09096" lon="3.84438">
        <ele>758</ele>
        <time>2011-12-25T19:10:56Z</time>
      </trkpt>
      <trkpt lat="46.09065" lon="3.84389">
        <ele>759</ele>
        <time>2011-12-25T19:10:56Z</time>
      </trkpt>
      <trkpt lat="46.09044" lon="3.84332">
        <ele>765</ele>
        <time>2011-12-25T19:10:56Z</time>
      </trkpt>
      <trkpt lat="46.09037" lon="3.84291">
        <ele>770</ele>
        <time>2011-12-25T19:10:56Z</time>
      </trkpt>
      <trkpt lat="46.09021" lon="3.84244">
        <ele>771</ele>
        <time>2011-12-25T19:10:56Z</time>
      </trkpt>
      <trkpt lat="46.09053" lon="3.8427">
        <ele>776</ele>
        <time>2011-12-25T19:10:56Z</time>
      </trkpt>
      <trkpt lat="46.09075" lon="3.84295">
        <ele>778</ele>
        <time>2011-12-25T19:10:56Z</time>
      </trkpt>
      <trkpt lat="46.09093" lon="3.84297">
        <ele>779</ele>
        <time>2011-12-25T19:10:56Z</time>
      </trkpt>
      <trkpt lat="46.09102" lon="3.84278">
        <ele>780</ele>
        <time>2011-12-25T19:10:56Z</time>
      </trkpt>
      <trkpt lat="46.09096" lon="3.84226">
        <ele>783</ele>
        <time>2011-12-25T19:10:56Z</time>
      </trkpt>
      <trkpt lat="46.091" lon="3.84107">
        <ele>787</ele>
        <time>2011-12-25T19:10:56Z</time>
      </trkpt>
      <trkpt lat="46.09103" lon="3.83958">
        <ele>815</ele>
        <time>2011-12-25T19:10:56Z</time>
      </trkpt>
      <trkpt lat="46.09104" lon="3.83866">
        <ele>837</ele>
        <time>2011-12-25T19:10:56Z</time>
      </trkpt>
      <trkpt lat="46.09107" lon="3.83798">
        <ele>853</ele>
        <time>2011-12-25T19:10:56Z</time>
      </trkpt>
      <trkpt lat="46.09126" lon="3.83768">
        <ele>863</ele>
        <time>2011-12-25T19:10:56Z</time>
      </trkpt>
      <trkpt lat="46.0917" lon="3.83768">
        <ele>863</ele>
        <time>2011-12-25T19:10:56Z</time>
      </trkpt>
      <trkpt lat="46.09214" lon="3.8373">
        <ele>869</ele>
        <time>2011-12-25T19:10:56Z</time>
      </trkpt>
      <trkpt lat="46.09243" lon="3.83697">
        <ele>872</ele>
        <time>2011-12-25T19:10:56Z</time>
      </trkpt>
      <trkpt lat="46.09265" lon="3.83636">
        <ele>878</ele>
        <time>2011-12-25T19:10:56Z</time>
      </trkpt>
      <trkpt lat="46.09284" lon="3.83549">
        <ele>885</ele>
        <time>2011-12-25T19:10:56Z</time>
      </trkpt>
      <trkpt lat="46.09282" lon="3.83467">
        <ele>893</ele>
        <time>2011-12-25T19:10:56Z</time>
      </trkpt>
      <trkpt lat="46.0931" lon="3.83346">
        <ele>900</ele>
        <time>2011-12-25T19:10:56Z</time>
      </trkpt>
      <trkpt lat="46.09349" lon="3.83208">
        <ele>913</ele>
        <time>2011-12-25T19:10:56Z</time>
      </trkpt>
      <trkpt lat="46.09388" lon="3.83088">
        <ele>925</ele>
        <time>2011-12-25T19:10:56Z</time>
      </trkpt>
      <trkpt lat="46.09399" lon="3.83045">
        <ele>929</ele>
        <time>2011-12-25T19:10:56Z</time>
      </trkpt>
      <trkpt lat="46.09474" lon="3.82979">
        <ele>923</ele>
        <time>2011-12-25T19:10:56Z</time>
      </trkpt>
      <trkpt lat="46.09538" lon="3.82927">
        <ele>922</ele>
        <time>2011-12-25T19:10:56Z</time>
      </trkpt>
      <trkpt lat="46.09599" lon="3.82874">
        <ele>920</ele>
        <time>2011-12-25T19:10:56Z</time>
      </trkpt>
      <trkpt lat="46.09672" lon="3.82824">
        <ele>916</ele>
        <time>2011-12-25T19:10:56Z</time>
      </trkpt>
      <trkpt lat="46.09722" lon="3.82793">
        <ele>912</ele>
        <time>2011-12-25T19:10:56Z</time>
      </trkpt>
      <trkpt lat="46.0976" lon="3.82775">
        <ele>907</ele>
        <time>2011-12-25T19:10:56Z</time>
      </trkpt>
      <trkpt lat="46.09794" lon="3.82752">
        <ele>901</ele>
        <time>2011-12-25T19:10:56Z</time>
      </trkpt>
      <trkpt lat="46.09824" lon="3.82709">
        <ele>896</ele>
        <time>2011-12-25T19:10:56Z</time>
      </trkpt>
      <trkpt lat="46.09858" lon="3.82638">
        <ele>888</ele>
        <time>2011-12-25T19:10:56Z</time>
      </trkpt>
      <trkpt lat="46.09876" lon="3.82566">
        <ele>887</ele>
        <time>2011-12-25T19:10:56Z</time>
      </trkpt>
      <trkpt lat="46.0988" lon="3.82489">
        <ele>890</ele>
        <time>2011-12-25T19:10:56Z</time>
      </trkpt>
      <trkpt lat="46.09877" lon="3.82419">
        <ele>888</ele>
        <time>2011-12-25T19:10:56Z</time>
      </trkpt>
      <trkpt lat="46.09858" lon="3.82393">
        <ele>886</ele>
        <time>2011-12-25T19:10:56Z</time>
      </trkpt>
      <trkpt lat="46.09804" lon="3.82351">
        <ele>881</ele>
        <time>2011-12-25T19:10:56Z</time>
      </trkpt>
      <trkpt lat="46.09772" lon="3.8231">
        <ele>880</ele>
        <time>2011-12-25T19:10:56Z</time>
      </trkpt>
      <trkpt lat="46.09755" lon="3.82282">
        <ele>881</ele>
        <time>2011-12-25T19:10:56Z</time>
      </trkpt>
      <trkpt lat="46.09782" lon="3.82219">
        <ele>873</ele>
        <time>2011-12-25T19:10:56Z</time>
      </trkpt>
      <trkpt lat="46.09802" lon="3.82178">
        <ele>867</ele>
        <time>2011-12-25T19:10:56Z</time>
      </trkpt>
      <trkpt lat="46.0987" lon="3.82197">
        <ele>863</ele>
        <time>2011-12-25T19:10:56Z</time>
      </trkpt>
      <trkpt lat="46.09946" lon="3.82188">
        <ele>858</ele>
        <time>2011-12-25T19:10:56Z</time>
      </trkpt>
      <trkpt lat="46.09995" lon="3.82165">
        <ele>854</ele>
        <time>2011-12-25T19:10:56Z</time>
      </trkpt>
      <trkpt lat="46.10027" lon="3.82147">
        <ele>853</ele>
        <time>2011-12-25T19:10:56Z</time>
      </trkpt>
      <trkpt lat="46.10106" lon="3.82016">
        <ele>848</ele>
        <time>2011-12-25T19:10:56Z</time>
      </trkpt>
      <trkpt lat="46.10173" lon="3.81906">
        <ele>840</ele>
        <time>2011-12-25T19:10:56Z</time>
      </trkpt>
      <trkpt lat="46.10217" lon="3.81848">
        <ele>833</ele>
        <time>2011-12-25T19:10:56Z</time>
      </trkpt>
      <trkpt lat="46.10271" lon="3.81765">
        <ele>827</ele>
        <time>2011-12-25T19:10:56Z</time>
      </trkpt>
      <trkpt lat="46.10297" lon="3.81734">
        <ele>825</ele>
        <time>2011-12-25T19:10:56Z</time>
      </trkpt>
      <trkpt lat="46.10362" lon="3.81688">
        <ele>818</ele>
        <time>2011-12-25T19:10:56Z</time>
      </trkpt>
      <trkpt lat="46.10408" lon="3.81669">
        <ele>810</ele>
        <time>2011-12-25T19:10:56Z</time>
      </trkpt>
      <trkpt lat="46.10471" lon="3.81656">
        <ele>800</ele>
        <time>2011-12-25T19:10:56Z</time>
      </trkpt>
      <trkpt lat="46.10539" lon="3.81672">
        <ele>794</ele>
        <time>2011-12-25T19:10:56Z</time>
      </trkpt>
      <trkpt lat="46.10593" lon="3.81682">
        <ele>790</ele>
        <time>2011-12-25T19:10:56Z</time>
      </trkpt>
      <trkpt lat="46.1063" lon="3.81683">
        <ele>787</ele>
        <time>2011-12-25T19:10:56Z</time>
      </trkpt>
      <trkpt lat="46.10661" lon="3.81661">
        <ele>785</ele>
        <time>2011-12-25T19:10:56Z</time>
      </trkpt>
      <trkpt lat="46.10696" lon="3.8161">
        <ele>782</ele>
        <time>2011-12-25T19:10:56Z</time>
      </trkpt>
      <trkpt lat="46.10718" lon="3.81586">
        <ele>782</ele>
        <time>2011-12-25T19:10:56Z</time>
      </trkpt>
      <trkpt lat="46.10753" lon="3.81463">
        <ele>779</ele>
        <time>2011-12-25T19:10:56Z</time>
      </trkpt>
      <trkpt lat="46.10771" lon="3.8141">
        <ele>777</ele>
        <time>2011-12-25T19:10:56Z</time>
      </trkpt>
      <trkpt lat="46.10783" lon="3.8136">
        <ele>776</ele>
        <time>2011-12-25T19:10:56Z</time>
      </trkpt>
      <trkpt lat="46.10808" lon="3.81354">
        <ele>776</ele>
        <time>2011-12-25T19:10:56Z</time>
      </trkpt>
      <trkpt lat="46.10875" lon="3.81376">
        <ele>778</ele>
        <time>2011-12-25T19:10:56Z</time>
      </trkpt>
      <trkpt lat="46.10918" lon="3.8139">
        <ele>784</ele>
        <time>2011-12-25T19:10:56Z</time>
      </trkpt>
      <trkpt lat="46.10959" lon="3.8142">
        <ele>788</ele>
        <time>2011-12-25T19:10:56Z</time>
      </trkpt>
      <trkpt lat="46.1098" lon="3.81421">
        <ele>790</ele>
        <time>2011-12-25T19:10:56Z</time>
      </trkpt>
      <trkpt lat="46.11031" lon="3.81338">
        <ele>799</ele>
        <time>2011-12-25T19:10:56Z</time>
      </trkpt>
      <trkpt lat="46.11067" lon="3.81256">
        <ele>806</ele>
        <time>2011-12-25T19:10:56Z</time>
      </trkpt>
      <trkpt lat="46.11086" lon="3.81228">
        <ele>807</ele>
        <time>2011-12-25T19:10:56Z</time>
      </trkpt>
      <trkpt lat="46.11142" lon="3.81174">
        <ele>814</ele>
        <time>2011-12-25T19:10:56Z</time>
      </trkpt>
      <trkpt lat="46.11226" lon="3.81191">
        <ele>821</ele>
        <time>2011-12-25T19:10:56Z</time>
      </trkpt>
      <trkpt lat="46.11285" lon="3.81178">
        <ele>827</ele>
        <time>2011-12-25T19:10:56Z</time>
      </trkpt>
      <trkpt lat="46.11331" lon="3.81181">
        <ele>830</ele>
        <time>2011-12-25T19:10:56Z</time>
      </trkpt>
      <trkpt lat="46.11347" lon="3.81156">
        <ele>834</ele>
        <time>2011-12-25T19:10:56Z</time>
      </trkpt>
      <trkpt lat="46.11371" lon="3.81045">
        <ele>840</ele>
        <time>2011-12-25T19:10:56Z</time>
      </trkpt>
      <trkpt lat="46.11399" lon="3.80987">
        <ele>837</ele>
        <time>2011-12-25T19:10:56Z</time>
      </trkpt>
      <trkpt lat="46.11465" lon="3.80902">
        <ele>832</ele>
        <time>2011-12-25T19:10:56Z</time>
      </trkpt>
      <trkpt lat="46.11517" lon="3.80833">
        <ele>831</ele>
        <time>2011-12-25T19:10:56Z</time>
      </trkpt>
      <trkpt lat="46.11576" lon="3.80783">
        <ele>829</ele>
        <time>2011-12-25T19:10:56Z</time>
      </trkpt>
      <trkpt lat="46.11619" lon="3.80716">
        <ele>821</ele>
        <time>2011-12-25T19:10:56Z</time>
      </trkpt>
      <trkpt lat="46.11644" lon="3.80652">
        <ele>817</ele>
        <time>2011-12-25T19:10:56Z</time>
      </trkpt>
      <trkpt lat="46.11649" lon="3.8057">
        <ele>817</ele>
        <time>2011-12-25T19:10:56Z</time>
      </trkpt>
      <trkpt lat="46.11655" lon="3.80517">
        <ele>817</ele>
        <time>2011-12-25T19:10:56Z</time>
      </trkpt>
      <trkpt lat="46.11647" lon="3.80466">
        <ele>815</ele>
        <time>2011-12-25T19:10:56Z</time>
      </trkpt>
      <trkpt lat="46.11649" lon="3.80368">
        <ele>810</ele>
        <time>2011-12-25T19:10:56Z</time>
      </trkpt>
      <trkpt lat="46.11649" lon="3.80261">
        <ele>800</ele>
        <time>2011-12-25T19:10:56Z</time>
      </trkpt>
      <trkpt lat="46.1165" lon="3.80185">
        <ele>794</ele>
        <time>2011-12-25T19:10:56Z</time>
      </trkpt>
      <trkpt lat="46.11651" lon="3.80078">
        <ele>786</ele>
        <time>2011-12-25T19:10:56Z</time>
      </trkpt>
      <trkpt lat="46.11645" lon="3.80025">
        <ele>782</ele>
        <time>2011-12-25T19:10:56Z</time>
      </trkpt>
      <trkpt lat="46.11634" lon="3.79939">
        <ele>774</ele>
        <time>2011-12-25T19:10:56Z</time>
      </trkpt>
      <trkpt lat="46.11613" lon="3.7983">
        <ele>767</ele>
        <time>2011-12-25T19:10:56Z</time>
      </trkpt>
      <trkpt lat="46.11611" lon="3.79788">
        <ele>764</ele>
        <time>2011-12-25T19:10:56Z</time>
      </trkpt>
      <trkpt lat="46.1161" lon="3.79718">
        <ele>764</ele>
        <time>2011-12-25T19:10:56Z</time>
      </trkpt>
      <trkpt lat="46.11618" lon="3.7967">
        <ele>767</ele>
        <time>2011-12-25T19:10:56Z</time>
      </trkpt>
      <trkpt lat="46.11641" lon="3.7964">
        <ele>768</ele>
        <time>2011-12-25T19:10:56Z</time>
      </trkpt>
      <trkpt lat="46.11648" lon="3.79608">
        <ele>768</ele>
        <time>2011-12-25T19:10:56Z</time>
      </trkpt>
    </trkseg>
  </trk>
</gpx>